Location: Morlupo
(42.1333°N, 12.5000°E)
Time: 15:29:28
(UTC+00:00)

Meteor 2-9 Rocket - Pass Details

Date: 18 September 2020
Orbit: 791 x 896 km, 81.3° (Epoch: 25 October)

Event Time Altitude Azimuth Distance (km) Brightness Sun altitude
Rises 17:48:50 0° 182° (S) 3,495 7.3 -7.3°
Reaches altitude 10° 17:51:17 10° 180° (S) 2,560 6.6 -7.8°
Maximum altitude 17:57:06 72° 97° (E) 936 4.3 -8.8°
Drops below altitude 10° 18:02:54 10° 14° (NNE) 2,548 6.7 -9.9°
Sets 18:05:20 0° 12° (NNE) 3,479 7.4 -10.3°
